SCP
0 0 0 0 0 0 0 0 0 0 0 0 0 0 0 0 0 0 0 0 0 0 0 0 0 0 0 0 0 0 0 0 0 0 0 0 0 0
0 0 0 0 0 0 0 0 0 0 0 0 0 0 0 0 0 0 0 0 0 0 0 0 0 0 0 0 0 0 0 0 0 0 0 0 0 0
0 0 0 0 0 0 0 0 0 0 0 0 0 0 0 0 0 0 0 0 0 0 0 0 0 0 0 0 0 0 0 0 0 0 0 0 0 0
0 0 0 0 0 0 0 0 0 0 0 0 0 0 0 0 0 0 0 0 0 0 0 0 0 0 0 0 0 0 0 0 0 0 0 0 0 0
0 0 0 0 0 0 0 0 0 0 0 0 0 0 0 0 0 0 0 0 0 0 0 0 0 0 0 0 0 0 0 0 0 0 0 0 0 0
0 0 0 0 0 0 0 0 0 0 0 0 0 0 0 0 0 0 0 0 0 0 0 0 0 0 0 0 0 0 0 0 0 0 0 0 0 0
0 0 0 0 0 0 0 0 0 0 0 0 0 0 0 0 0 0 0 0 0 0 0 0 0 0 0 0 0 0 0 0 0 0 0 0 0 0
0 0 0 0 0 0 0 0 0 0 0 0 0 0 0 0 0 0 0 0 0 0 0 0 0 0 0 0 0 0 0 0 0 0 0 0 0 0
0 0 0 0 0 0 0 0 0 0 0 0 0 0 0 0 0 0 0 0 0 0 0 0 0 0 0 0 0 0 0 0 0 0 0 0 0 0
0 0 0 0 0 0 0 0 0 0 0 0 0 0 0 0 0 0 0 0 0 0 0 0 0 0 0 0 0 0 0 0 0 0 0 0 0 0
0 0 0 0 0 0 0 0 0 0 0 0 0 0 0 0 0 0 0 0 0 0 0 0 0 0 0 0 0 0 0 0 0 0 0 0 0 0
0 0 0 0 0 0 0 0 0 0 0 0 0 0 0 0 0 0 0 0 0 0 0 0 0 0 0 0 0 0 0 0 0 0 0 0 0 0
0 0 0 0 0 0 0 0 0 0 0 0 0 0 0 0 0 0 0 0 0 0 0 0 0 0 0 0 0 0 0 0 0 0 0 0 0 0
0 0 0 0 0 0 0 0 0 0 0 0 0 0 0 0 0 0 0 0 0 0 0 0 0 0 0 0 0 0 0 0 0 0 0 0 0 0
0 0 0 0 0 0 0 0 0 0 0 0 0 0 0 0 0 0 0 0 0 0 0 0 0 0 0 0 0 0 0 0 0 0 0 0 0 0
0 0 0 0 0 0 0 0 0 0 0 0 0 0 0 0 0 0 0 0 0 0 0 0 0 0 0 0 0 0 0 0 0 0 0 0 0 0
0 0 0 0 0 0 0 0 0 0 0 0 0 0 0 0 0 0 0 0 0 0 0 0 0 0 0 0 0 0 0 0 0 0 0 0 0 0
0 0 0 0 0 0 0 0 0 0 0 0 0 0 0 0 0 0 0 0 0 0 0 0 0 0 0 0 0 0 0 0 0 0 0 0 0 0
0 0 0 0 0 0 0 0 0 0 0 0 0 0 0 0 0 0 0 0 0 0 0 0 0 0 0 0 0 0 0 0 0 0 0 0 0 0
0 0 0 0 0 0 0 0 0 0 0 0 0 0 0 0 0 0 0 0 0 0 0 0 0 0 0 0 0 0 0 0 0 0 0 0 0 0
0 0 0 0 0 0 0 0 0 0 0 0 0 0 0 0 0 0 0 0 0 0 0 0 0 0 0 0 0 0 0 0 0 0 0 0 0 0
0 0 0 0 0 0 0 0 0 0 0 0 0 0 0 0 0 0 0 0 0 0 0 0 0 0 0 0 0 0 0 0 0 0 0 0 0 0
0 0 0 0 -0 0 0 0 0 0 0 0 0 0 0 0 0 0 0 0 0 0 0 0 0 0 0 0 0 0 0 0 0 0 0 0 0 0
Wind_Speed
17 17 16 13 11 11 9 9 10 12 12 8 7 7 9 8 16 11 9 20 24 24 24 24 25 25 26 26 26 27 27 28 28 28 29 29 30 30
13 15 17 13 11 11 11 10 11 14 15 5 8 6 8 9 16 12 11 22 25 24 25 25 25 26 26 27 27 27 28 28 29 29 30 30 31 31
15 16 19 15 13 11 11 11 12 12 18 9 6 7 8 9 9 7 7 8 10 24 26 26 26 26 27 27 27 28 29 29 29 30 31 31 32 32
17 17 18 14 17 13 12 14 13 13 15 16 7 7 10 9 8 8 9 10 8 20 25 26 27 27 27 27 28 28 28 29 29 30 31 32 33 33
16 17 17 15 17 14 14 14 13 13 13 14 11 7 8 7 8 8 11 8 10 16 22 24 26 27 27 27 28 28 28 29 30 31 31 32 33 34
15 16 16 16 18 16 15 15 13 13 12 12 11 8 9 7 6 8 9 8 10 10 15 17 21 26 27 28 28 28 28 29 30 31 32 32 33 34
14 14 16 20 23 19 14 11 12 12 11 12 12 10 10 9 9 8 10 8 8 8 9 10 11 10 12 20 25 27 28 29 31 32 32 33 33 34
14 14 15 19 24 30 31 27 21 16 14 14 13 13 12 12 10 9 8 8 8 6 8 10 8 10 9 9 20 27 29 30 31 32 32 33 34 35
13 12 11 12 19 14 21 29 27 31 28 17 16 16 13 12 11 11 11 10 11 6 5 10 8 11 9 12 25 28 29 30 31 32 33 34 34 35
11 12 12 12 12 13 12 13 13 15 18 18 15 14 13 11 11 12 11 11 10 9 8 11 10 10 10 9 21 27 29 31 32 32 33 34 34 35
10 10 12 12 19 24 15 13 14 13 21 27 24 21 24 26 18 10 11 10 11 9 8 8 8 9 10 10 14 25 29 30 31 31 32 33 33 33
7 9 17 17 19 22 14 12 15 12 10 11 16 19 17 19 25 16 11 11 9 7 6 6 6 4 8 7 8 8 13 22 28 31 32 32 32 21
7 7 8 19 22 22 20 13 17 13 9 10 9 9 8 8 9 9 9 9 9 9 5 5 5 6 9 11 8 9 10 11 12 17 24 29 31 26
8 6 9 18 20 21 17 17 22 20 9 9 9 9 9 9 9 9 9 10 10 10 7 6 6 7 10 14 13 7 7 9 11 13 12 20 25 29
7 13 16 19 18 15 18 21 18 11 9 10 10 9 8 8 6 5 6 7 8 8 8 8 9 9 10 13 15 13 13 12 11 11 11 12 13 13
8 11 16 16 12 12 12 11 8 7 8 8 8 7 6 6 6 6 5 5 5 7 8 9 10 10 11 13 14 15 13 12 9 10 12 13 13 13
7 5 4 5 5 5 6 6 5 6 8 6 7 7 7 6 6 5 5 5 5 6 6 5 7 9 12 13 14 15 14 14 13 12 13 15 14 13
10 5 6 6 6 6 6 6 6 7 6 6 6 6 7 6 6 5 4 5 6 7 7 6 5 7 8 10 16 16 14 14 12 12 13 15 16 13
8 6 6 6 6 6 6 6 6 6 6 6 6 6 6 6 5 5 5 5 6 7 7 5 5 7 12 13 8 13 13 13 13 13 13 14 17 15
5 6 6 5 6 6 6 6 5 5 5 6 6 6 6 5 5 5 5 6 6 7 7 6 6 8 11 13 13 10 16 15 13 15 14 13 15 20
5 5 5 5 5 5 5 5 6 5 6 6 6 6 6 5 5 5 5 10 8 6 8 8 8 13 9 8 12 12 9 15 19 16 15 14 15 14
5 5 4 4 4 5 5 5 5 5 6 6 6 6 5 5 6 6 6 6 6 7 9 8 6 6 7 10 13 15 15 13 15 24 26 24 14 11
5 5 4 4 4 4 4 5 6 5 5 6 5 5 5 5 5 5 6 6 6 7 8 8 6 6 8 9 12 13 16 16 13 13 13 19 25 30
Wind_Direction
231 229 231 231 225 223 217 211 229 256 256 208 214 217 219 219 231 231 223 241 248 253 258 262 265 268 270 271 273 274 276 276 277 278 278 278 278 277
229 229 231 231 228 223 222 219 220 239 258 213 208 201 209 220 230 226 219 236 245 253 259 262 265 267 268 270 271 273 273 275 276 276 276 277 277 277
231 230 233 227 228 225 222 221 224 226 249 245 200 205 208 221 234 223 217 229 244 254 260 262 265 266 266 268 269 271 273 274 275 276 277 277 277 277
234 232 234 228 229 225 223 225 226 223 236 250 223 210 218 221 225 229 235 237 234 251 257 261 263 264 265 267 270 271 273 274 275 276 277 277 277 277
234 232 233 228 231 227 224 226 225 226 228 240 239 218 225 223 225 234 239 239 242 250 256 260 262 264 266 268 270 271 272 274 275 276 276 277 277 277
237 234 232 227 230 227 227 226 223 224 225 232 237 228 228 219 216 231 243 235 241 245 251 255 259 262 265 268 270 272 274 276 276 276 276 276 275 275
241 237 235 234 233 232 229 224 219 223 223 228 234 232 228 220 222 221 237 243 243 239 244 248 253 255 259 266 270 272 273 275 276 276 275 275 275 274
244 241 240 245 247 246 243 235 221 218 221 224 229 229 227 224 226 223 229 236 248 222 229 243 237 247 248 244 260 267 271 273 274 275 275 275 275 273
240 240 240 237 242 238 246 248 243 233 223 217 227 226 224 220 219 226 228 229 239 230 222 256 247 253 250 257 266 269 272 275 276 277 276 276 275 274
241 237 237 237 232 231 229 233 236 241 238 229 223 223 223 221 214 221 229 240 249 243 228 256 257 258 260 254 266 270 274 276 276 277 277 276 276 275
244 237 237 236 241 243 236 230 234 236 244 242 236 228 226 227 221 220 226 233 246 243 216 236 255 263 265 263 264 270 273 275 276 277 278 278 277 276
250 241 246 246 245 248 239 229 232 231 223 235 243 246 240 236 235 226 221 232 245 251 209 216 243 258 277 255 248 255 264 271 275 277 277 277 277 275
256 246 241 254 255 251 243 231 234 227 212 217 222 228 230 233 236 233 223 227 241 248 209 197 236 245 263 278 270 258 257 262 268 271 274 275 274 272
260 251 243 252 254 253 250 241 237 234 218 212 219 222 222 225 226 223 223 223 230 242 234 214 240 253 268 277 282 271 252 259 265 269 266 270 272 271
261 262 260 255 254 253 252 249 242 229 218 213 214 216 216 216 210 210 218 227 237 242 242 229 237 250 255 269 279 282 284 277 263 262 264 265 264 264
278 274 275 268 256 248 248 251 237 221 218 215 211 210 201 199 205 204 213 215 239 252 238 232 235 242 256 264 271 278 277 275 270 267 270 270 265 259
261 245 241 243 234 232 235 232 221 217 221 209 206 203 202 205 209 200 205 208 230 256 263 248 239 242 249 261 270 271 274 274 273 274 274 274 267 260
278 252 239 229 227 229 229 224 218 215 210 204 202 201 203 206 208 200 200 214 238 251 258 261 264 273 268 255 244 262 267 271 274 272 271 275 276 267
281 263 249 232 223 221 219 216 214 210 201 200 203 203 202 203 203 210 213 223 240 251 255 253 252 266 280 284 258 241 263 275 278 276 271 269 274 276
266 262 253 237 224 218 212 210 210 203 200 202 201 201 200 201 207 215 218 227 244 254 261 254 245 250 263 279 286 273 263 268 274 276 277 273 270 273
268 262 251 238 226 217 211 206 205 204 200 198 202 202 200 202 213 219 225 244 252 255 261 263 255 267 274 277 278 278 268 265 270 273 278 278 279 277
263 257 249 237 227 216 207 203 204 206 202 202 204 203 202 204 215 222 228 238 246 252 261 269 267 269 264 270 277 285 290 287 279 277 272 263 262 267
264 253 240 232 224 210 203 203 205 208 205 203 204 204 202 208 216 223 231 239 249 258 267 275 275 266 265 269 278 284 290 295 296 293 282 270 262 260